Regional Weather Roundup
Issued by NWS

Home | Current Version | Previous Version | Graphics & Text | Print | Product List | Glossary On
Versions: 1 2 3 4 5 6 7 8 9 10 11 12 13 14 15 16 17 18 19 20 21 22 23 24 25 26 27 28 29 30 31 32 33 34 35 36 37 38 39 40 41 42 43 44 45 46 47 48 49 50
000
ASUS43 KIND 050909
RWRIN

WEATHER ROUNDUP FOR INDIANA
NATIONAL WEATHER SERVICE INDIANAPOLIS IN
500 AM EDT SAT SEP 05 2015

NOTE: "FAIR" INDICATES FEW OR NO CLOUDS BELOW 12,000 FEET WITH NO
SIGNIFICANT WEATHER AND/OR OBSTRUCTIONS TO VISIBILITY.

* - STATION DOES NOT REPORT WEATHER SUCH AS PRECIPITATION OR FOG.

+ - STATION NOT QUALITY CONTROLLED BY THE NATIONAL WEATHER SERVICE.
    USE DATA WITH CAUTION...ESPECIALLY DEWPOINT AND RELATIVE
    HUMIDITY OBSERVATIONS.

INZ001>003-010>013-019-020-051000-
NORTHWEST INDIANA

CITY           SKY/WX    TMP DP  RH WIND       PRES   REMARKS
GARY /AIRPORT/ PTCLDY    70  68  92 SE5       30.08R FOG
KNOX *+        PTCLDY    64  64 100 SE5       30.09R
LA PORTE +     MOCLDY   N/A N/A N/A S5        30.10R
MICHIGAN CITY+ MOCLDY    66  66 100 CALM      30.09R
MONTICELLO +   PTCLDY    66  66 100 SE5       30.09R
RENSSELAER +   PTCLDY    64  64 100 CALM      30.09R
VALPARAISO     PTCLDY    68  66  93 S6        30.09R

$$

LMZ046-743>745-051000-
SOUTHERN LAKE MICHIGAN

STATION/POSITION TIME  TEMP    WIND        PRES    WAVE
                       AIR SEA DIR/SP/G            HT
                 (UTC) (F)     (DEG/KT/KT) (MB)    (FT)
BURNS HARBOR     0800   72     170/  1/  3 1018.3R
MICHIGAN CITY    0800   70     130/  7/  8   N/A
5NW MICH CITY    0900   71 74  160/ 10/ 12   N/A     1

$$

INZ004-005-014>016-021>024-051000-
NORTH CENTRAL INDIANA

CITY           SKY/WX    TMP DP  RH WIND       PRES   REMARKS
GOSHEN         PTCLDY    66  64  93 CALM      30.10R
LOGANSPORT +   CLEAR     63  61  94 CALM      30.11R FOG
PERU/GRISSOM   CLEAR     66  64  94 SE2       30.10R
ROCHESTER +    CLEAR     70  68  94 S3        30.10S
SOUTH BEND     MOCLDY    68  65  90 S3        30.09R
WARSAW +       PTCLDY    68  64  88 CALM      30.10R

$$

INZ006>009-017-018-025>027-051000-
NORTHEAST INDIANA

CITY           SKY/WX    TMP DP  RH WIND       PRES   REMARKS
ANGOLA *+      CLEAR     66  55  68 CALM      30.10S
AUBURN +       PTCLDY    64  61  88 CALM      30.10S
FORT WAYNE     CLOUDY    66  64  93 W3        30.10S
HUNTINGTON +   MOCLDY    66  63  88 CALM      30.10R

$$

INZ028-029-035-036-043>045-051>053-051000-
WEST CENTRAL INDIANA

CITY           SKY/WX    TMP DP  RH WIND       PRES   REMARKS
CRAWFORDSVL +  CLEAR     62  62 100 CALM      30.10R FOG
GREENCASTLE +  CLEAR     64  61  88 CALM      30.11R
LAFAYETTE      CLEAR     66  63  90 CALM      30.08R
TERRE HAUTE    CLEAR     66  64  93 CALM      30.08R

$$

INZ030>032-037>040-046>048-054>057-064-065-051000-
CENTRAL INDIANA

CITY           SKY/WX    TMP DP  RH WIND       PRES   REMARKS
FRANKFORT +    CLEAR    N/A N/A N/A CALM      30.12R HAZE
GREENWOOD *+   PTCLDY    66  63  88 CALM      30.10R
INDIANAPOLIS   PTCLDY    70  64  81 CALM      30.09R
-EAGLE CREEK   CLEAR     68  65  90 CALM      30.09R
KOKOMO *+      CLEAR     64 N/A N/A CALM      30.10S
MARION +       PTCLDY    65  59  82 SE3       30.11S
MT COMFORT *+  CLEAR     63 N/A N/A CALM      30.11R
SHELBYVILLE    CLEAR     65  62  90 E6        30.09R
ZIONSVILLE +   CLEAR     63  60  90 CALM      30.11R FOG

$$

INZ033-034-041-042-049-050-058-059-051000-
EAST CENTRAL INDIANA

CITY           SKY/WX    TMP DP  RH WIND       PRES   REMARKS
MUNCIE         PTCLDY    64  63  96 CALM      30.11F

$$

INZ060-061-067>069-081>083-085>088-051000-
SOUTHWEST INDIANA

CITY           SKY/WX    TMP DP  RH WIND       PRES   REMARKS
EVANSVILLE     CLEAR     72  67  84 CALM      30.07R HAZE
HUNTINGBURG *+ CLEAR     72  63  73 SE3       30.07S
WASHINGTON +   CLEAR     68  64  88 E5        30.06S

$$

INZ062-063-066-070>080-084-089>092-051000-
SOUTH CENTRAL AND SOUTHEAST INDIANA

CITY           SKY/WX    TMP DP  RH WIND       PRES   REMARKS
BLOOMINGTON    CLEAR     66  64  93 SE3       30.09R
MADISON *+     PTCLDY    64  63  94 CALM      30.11R
NORTH VERNON + PTCLDY    66  66 100 CALM      30.10R FOG
SEYMOUR +      CLEAR     64  63  94 CALM      30.08S

$$




USA.gov is the U.S. government's official web portal to all federal, state and local government web resources and services.